Regional Weather Roundup
Issued by NWS Green Bay, WI

Home | Current Version | Previous Version | Graphics & Text | Print | Product List | Glossary Off
Versions: 1 2 3 4 5 6 7 8 9 10 11 12 13 14 15 16 17 18 19 20 21 22 23 24 25 26 27 28 29 30 31 32 33 34 35 36 37 38 39 40 41 42 43 44 45 46 47 48 49 50

000
ASUS43 KGRB 260711
RWRGRB

NORTH-CENTRAL AND NORTHEAST WISCONSIN REGIONAL WEATHER ROUNDUP
NATIONAL WEATHER SERVICE GREEN BAY WI
200 AM CDT TUE MAY 26 2015

WIZ005-009-010>012-018-019-260800-
NORTH CENTRAL WISCONSIN

CITY           SKY/WX    TMP DP  RH WIND       PRES   REMARKS
IRONWOOD       CLOUDY    54  54 100 W3        29.77R
MANITOWISH WTR CLOUDY    59  59 100 S5        29.80R
ARBOR VITAE    MOCLDY    62  60  94 SW3       29.81R
EAGLE RIVER    MOCLDY    60  60  99 CALM      29.82R
LAND O LAKES   MOCLDY    60  59  97 CALM      29.82S
RHINELANDER    MOCLDY    60  58  92 SW7       29.83S
PHILLIPS       PTCLDY    60  60  99 S5        29.80S
ANTIGO         PTCLDY    61  59  95 SW13      29.84S
TOMAHAWK       PTCLDY    57  56  97 CALM      29.83R FOG
MERRILL        FOG       53  53 100 CALM      29.83S VSB 1/2
$$

WIZ013-073-260800-
NORTHEAST WISCONSIN

CITY           SKY/WX    TMP DP  RH WIND       PRES   REMARKS
IRON MOUNTAIN  PTCLDY    59  57  93 S5        29.81R
MARINETTE      PTCLDY    61  57  88 SW3       29.82S
OCONTO         PTCLDY    61  61 100 CALM      29.83S
$$

WIZ017-030-035>037-045-260800-
CENTRAL WISCONSIN

CITY           SKY/WX    TMP DP  RH WIND       PRES   REMARKS
MEDFORD        CLEAR     60  59  97 S6        29.83S
WAUSAU         CLEAR     61  60  97 SW6       29.82S
MOSINEE        PTCLDY    61  61 100 S8        29.85R
MARSHFIELD     PTCLDY    64  60  87 S9        29.83R
WISC RAPIDS    PTCLDY    64  60  87 SW5       29.85R
STEVENS POINT  CLEAR     61  59  96 S6        29.85R
WAUPACA        CLEAR     64  63  96 CALM      29.85S
SHAWANO        PTCLDY    63  60  93 CALM      29.84S
CLINTONVILLE   CLEAR     63  61  94 SW6       29.84S
$$

WIZ038-039-048-051-260800-
FOX VALLEY

CITY           SKY/WX    TMP DP  RH WIND       PRES   REMARKS
NWS GREEN BAY  PTCLDY    67  61  81 SW8       29.86R
APPLETON       PTCLDY    64  59  82 SW12      29.87R
OSHKOSH        CLEAR     66  59  78 S10       29.86S
FOND DU LAC    CLEAR     68  60  75 SW7       29.87S
$$

WIZ022-050-052-260800-
EAST CENTRAL WISCONSIN

CITY           SKY/WX    TMP DP  RH WIND       PRES   REMARKS
STURGEON BAY   MOCLDY    64  59  82 S10       29.87R
MANITOWOC      PTCLDY    69  61  75 SW9       29.87S
SHEBOYGAN      PTCLDY    61  58  90 S6        29.88S
$$

LMZ563-521-522-541>543-260800-
LAKESHORE

STATION/POSITION TIME  TEMP    WIND        PRES    VSBY  WAVE
                       AIR SEA DIR/SP/G                  HT/PER
                 (UTC) (F)     (DEG/KT/KT) (MB)    (MI)  (FT/S)
SHEBOYGAN LKSHOR 0700   60     220/  7/  8 1011.9R
KEWAUNEE LKSHORE 0600   59     200/  5/  7 1010.3F
NORTHPORT PIER   0600   59     160/  3/  5 1010.2S
N MID LAKE BUOY  0650   42 37  190/ 12/ 16 1010.9R         2/ 5
CHAMBERS ISLAND  0600   62     180/  4/ 11 1010.2S
MENOMINEE LKSHOR 0600   63     220/  7/  9 1010.9R
$$


USA.gov is the U.S. government's official web portal to all federal, state and local government web resources and services.